Location: Beutels
(47.8767°N, 9.8584°E)
Time: 20:41:57
(UTC+00:00)

Cosmos 2150 Rocket - Pass Details

Date: 19 May 2025
Orbit: 745 x 804 km, 74.0° (Epoch: 19 June)

Event Time Altitude Azimuth Distance (km) Brightness Sun altitude
Rises 21:33:55 0° 333° (NNW) 3,295 9.0 -18.3°
Reaches altitude 10° 21:36:21 10° 330° (NNW) 2,370 7.8 -18.5°
Maximum altitude 21:41:36 55° 254° (WSW) 958 4.5 -18.9°
Enters shadow 21:44:07 30° 190° (S) 1,413 4.9 -19.0°
